Вернуться в каталог

STARLINK-36343

АктивенСвязьSSO
NORAD 67816·PAYLOAD·🇺🇸 United States

Запущен Feb 15, 2026 с Vandenberg Space Force Base

Loading…

Ближайшие Пролёты (ближайшие 24 часа)

TLE

СвежийSource: CelesTrak SupGP

Эпоха: Sep 14, 2026, 23:23 UTC

1 67816C 26032V   26257.97479167  .00057400  00000+0  17821-2 0  2576
2 67816  97.2855  84.5186 0001560  94.6906 219.7874 15.33405813    16

Отслеживайте STARLINK-36343 в реальном времени с AllMySat

Download on the App Store